Theta_e
306 306 306 306 305 305 305 304 304 304 304 304 304 305 305 306 307 306 306 312 302 296 299 301 300 296 295 293 289 296 293 295 296 288 288 288 288 290 290 291 291 290 288 291 292 291 288 303 305 301 303 308 310 311
305 306 306 306 305 305 305 305 305 305 305 304 304 305 305 306 306 307 303 310 309 298 299 305 305 306 303 300 294 293 293 292 296 291 293 290 289 290 289 285 293 288 290 289 292 290 297 302 302 305 307 306 310 311
306 306 305 306 306 306 305 305 305 305 305 305 304 305 305 305 306 305 306 307 303 298 301 303 300 307 308 305 305 290 293 295 296 299 295 291 288 292 287 288 288 293 296 293 296 295 296 301 304 304 307 307 310 312
306 306 306 305 306 306 306 305 305 305 305 305 305 305 305 305 305 305 304 307 303 300 292 300 308 305 309 308 304 301 296 298 297 299 296 294 292 298 291 291 290 293 295 292 293 297 298 299 303 305 307 308 309 311
305 305 305 305 306 306 305 305 305 305 305 305 306 306 306 304 305 305 308 309 308 302 296 298 306 307 306 308 306 304 298 295 294 295 297 295 299 296 298 296 294 298 292 291 290 296 298 299 304 306 306 306 309 309
305 305 305 305 305 305 305 305 305 305 305 305 305 304 304 305 304 305 301 310 310 308 295 293 306 304 305 306 306 306 305 299 298 297 299 299 302 299 294 292 295 299 301 300 296 301 301 304 306 307 307 307 309 309
304 304 305 305 305 305 305 305 306 305 305 305 305 305 304 307 308 306 303 307 309 307 297 294 297 304 307 305 305 303 307 302 300 300 300 301 300 299 296 289 296 298 299 301 303 302 300 301 301 305 307 309 309 310
304 304 304 304 305 305 305 305 305 305 305 305 304 304 306 307 307 306 309 306 309 304 300 292 297 299 308 299 296 305 300 303 304 300 301 298 301 299 295 293 294 297 299 300 301 302 302 305 306 305 307 309 309 309
302 303 303 304 304 304 305 305 305 305 305 304 304 304 307 307 305 305 306 305 309 304 295 296 294 292 305 300 301 299 303 295 305 300 301 299 295 290 293 295 295 297 297 298 302 303 303 303 304 305 306 307 307 308
301 301 302 302 304 304 304 305 305 305 304 304 305 306 302 304 303 306 303 298 299 300 300 297 303 296 302 299 296 298 301 297 294 300 304 299 295 299 300 302 302 300 300 300 298 299 302 301 303 305 305 307 308 308
299 299 299 302 303 304 304 304 304 304 303 307 303 302 305 306 305 303 296 294 296 294 300 301 301 298 305 295 294 300 296 298 293 297 297 295 293 297 300 300 302 303 304 301 302 303 305 306 304 304 306 308 308 309
299 300 301 302 302 303 304 304 303 304 302 299 299 301 302 299 298 293 295 298 297 295 301 298 300 302 303 304 295 296 293 297 289 300 297 292 297 300 302 301 302 303 304 303 303 302 304 305 306 306 306 307 309 312
298 299 300 301 302 303 304 304 301 302 303 303 296 292 294 298 289 290 289 294 295 299 300 301 298 303 302 301 296 294 288 290 300 295 293 296 298 299 301 302 303 304 304 304 304 304 304 304 305 307 307 308 309 309
297 298 299 300 301 302 301 302 302 302 302 297 296 289 293 292 295 297 297 297 302 301 300 301 299 299 300 295 296 290 295 298 290 288 289 298 299 301 303 304 303 303 303 303 304 305 304 302 304 305 304 304 306 304
297 297 298 300 301 300 301 302 302 303 302 297 296 288 293 298 300 301 301 302 303 303 302 299 299 300 297 294 296 292 289 287 290 291 300 303 303 303 303 303 304 304 304 303 304 304 305 306 305 306 305 305 305 305
297 297 302 301 300 301 302 303 304 304 302 298 297 296 301 299 298 299 300 299 303 303 304 301 295 293 292 295 290 289 288 286 291 300 301 305 304 305 305 305 304 304 304 304 304 305 304 305 305 306 307 306 305 304
297 299 301 301 301 301 302 300 302 296 295 296 296 301 301 300 300 301 301 300 304 301 296 296 291 290 299 292 290 295 289 294 301 300 302 305 305 305 306 305 305 305 304 305 305 305 306 306 307 306 306 306 306 306
294 300 300 299 300 299 300 299 299 297 292 297 297 300 303 304 303 303 303 303 301 300 299 294 298 292 291 289 292 297 302 302 302 302 303 305 305 305 305 305 304 305 305 305 306 305 306 305 305 304 306 306 305 305
295 297 297 298 300 296 294 297 299 293 297 300 301 303 303 304 306 305 304 304 304 303 300 298 293 293 294 297 297 298 300 301 300 301 303 306 306 305 305 305 305 305 305 305 305 304 305 306 306 306 305 306 304 305
295 297 298 299 298 293 291 295 301 296 295 299 301 301 302 302 304 304 304 304 302 300 297 295 296 298 298 300 302 303 302 304 303 301 301 303 305 306 305 305 303 305 304 305 305 300 304 305 305 305 305 303 301 302
295 298 298 298 297 296 292 294 294 298 298 297 300 300 299 302 301 302 301 303 299 297 296 299 300 302 304 304 305 304 304 304 302 302 301 301 303 305 304 305 305 303 303 304 302 302 301 304 304 306 305 303 303 304
295 297 296 297 294 293 291 296 296 298 296 296 296 297 296 296 297 299 302 299 298 300 301 301 302 303 302 303 304 305 305 305 305 302 299 301 301 302 303 305 303 301 302 304 303 302 302 304 304 305 304 305 302 303
296 294 293 293 288 288 287 297 290 293 290 293 296 293 294 296 298 303 297 299 300 304 303 303 304 305 303 305 305 305 305 304 302 303 303 304 303 305 304 305 306 302 301 303 304 302 302 297 301 303 303 303 303 302
295 292 287 286 286 284 290 288 293 292 293 292 291 290 293 295 298 296 293 297 300 303 302 303 304 302 303 303 302 302 303 305 303 304 304 304 302 303 304 304 305 304 305 304 304 306 302 302 296 303 302 301 301 299
286 285 286 282 287 284 285 287 288 289 287 289 289 290 292 296 292 292 291 295 297 300 303 303 302 301 300 301 302 303 305 303 302 301 304 306 303 304 303 302 303 305 305 303 304 302 301 302 302 301 301 299 298 297
279 286 283 285 285 285 285 284 286 287 288 287 290 292 295 292 289 288 293 297 298 299 301 302 301 300 300 301 301 302 303 306 305 302 303 304 304 304 300 300 300 301 305 306 304 302 300 300 301 300 300 297 289 296
277 282 287 292 289 289 287 289 290 288 286 286 290 290 290 286 286 292 298 301 300 300 305 304 303 300 300 301 302 304 305 305 304 303 305 307 305 306 303 300 298 302 304 304 304 303 301 300 301 300 299 299 298 296
283 284 281 285 286 288 284 285 285 285 286 292 291 287 286 287 290 296 297 302 301 304 304 303 302 301 302 303 304 304 303 303 306 307 306 305 305 305 303 304 306 288 303 304 304 303 303 301 300 299 298 297 297 296
284 286 286 283 285 285 286 285 286 289 291 289 286 285 287 291 294 296 298 300 302 299 298 298 299 301 301 303 304 304 304 304 301 300 299 298 299 300 303 304 304 303 304 302 283 291 298 298 299 298 297 298 297 296
284 287 284 284 282 282 286 288 287 291 292 292 293 292 291 293 297 299 298 297 298 297 298 299 299 298 297 299 300 302 305 305 304 301 299 297 298 302 303 304 303 303 303 302 300 296 284 294 290 298 297 297 296 295
287 287 284 285 284 286 289 291 292 292 292 291 292 290 290 292 292 289 288 290 295 296 293 292 294 296 299 298 298 298 299 304 304 304 302 303 303 302 303 303 303 302 302 300 300 299 297 297 297 295 294 293 291 292
287 285 284 283 285 289 291 289 289 288 289 288 288 291 291 291 287 286 288 288 287 287 287 288 288 289 291 296 297 297 290 297 297 297 300 303 303 303 304 304 303 302 300 299 298 298 297 296 295 294 292 290 290 289
286 287 286 285 285 285 288 287 287 286 288 288 288 290 290 287 282 286 290 290 288 286 286 288 290 292 291 290 291 291 290 292 288 284 285 285 285 291 300 301 301 301 299 298 297 295 294 293 293 291 290 289 288 287
Wind_Speed
18 17 18 18 19 18 19 20 21 21 20 21 19 18 17 16 15 9 7 8 6 5 17 13 9 12 11 7 6 11 11 4 4 4 3 5 5 5 6 2 8 5 4 5 6 5 3 21 5 7 6 7 8 8
19 19 17 17 18 18 19 20 20 21 20 20 20 19 17 16 14 10 10 3 5 4 13 20 20 17 11 12 5 3 5 6 3 4 3 3 3 3 7 2 6 3 4 6 6 4 8 8 13 13 11 7 10 10
19 19 20 19 18 17 18 20 21 22 21 21 21 20 18 16 14 10 10 3 3 5 11 8 5 9 7 6 7 3 3 4 3 4 5 2 4 2 4 3 3 3 5 4 5 8 7 10 12 12 11 9 11 13
18 18 18 19 18 18 18 18 22 22 23 22 21 21 20 16 13 10 9 6 3 4 4 3 6 2 2 7 10 10 4 4 6 8 5 4 3 1 3 2 3 4 7 11 4 8 7 11 11 12 12 13 13 14
18 18 18 19 19 17 19 18 20 22 23 24 23 22 21 18 11 8 9 7 8 4 6 9 14 9 1 7 9 11 10 5 4 4 5 4 3 4 3 3 6 3 3 3 3 7 5 12 11 14 10 14 14 13
18 19 18 18 18 17 19 19 19 21 24 26 25 25 23 19 9 4 6 7 6 4 3 5 7 4 4 6 7 6 10 7 5 5 7 5 5 7 3 3 12 14 10 9 9 14 13 13 11 7 12 13 12 13
17 18 17 19 18 18 18 20 20 21 25 25 25 24 22 11 8 5 8 4 7 5 3 5 4 5 2 1 3 5 6 5 5 4 3 4 4 4 5 4 17 16 16 13 12 11 10 7 10 12 12 10 11 10
17 17 17 17 17 17 18 18 20 21 25 26 24 23 10 3 9 6 4 2 4 4 3 3 5 3 3 2 3 4 4 3 2 2 4 4 3 4 4 13 12 13 12 13 14 13 11 15 15 11 10 10 10 9
15 17 17 16 16 17 18 17 20 22 24 27 23 10 5 6 1 4 4 6 4 5 3 5 3 3 1 3 2 5 4 3 3 1 1 2 6 3 3 10 8 7 9 12 13 11 10 13 12 9 8 10 11 10
16 17 17 17 17 16 17 16 18 20 27 29 11 8 4 4 2 7 3 3 5 5 4 6 2 3 2 2 3 3 5 4 2 1 2 1 1 5 3 8 8 7 6 12 11 12 14 9 12 13 13 11 9 10
17 17 19 18 18 17 16 16 16 19 18 5 5 3 6 5 5 4 4 5 5 5 6 6 6 5 3 3 2 4 4 4 2 2 2 1 3 6 6 9 8 5 7 8 9 9 13 11 10 9 11 14 11 11
18 19 18 18 17 17 15 14 13 9 5 7 8 8 5 3 5 5 6 5 6 4 9 6 2 2 3 1 2 4 3 4 2 4 2 1 3 8 9 9 11 9 11 4 5 8 11 13 13 13 12 11 14 16
18 19 19 18 17 17 16 13 6 11 14 2 3 4 4 5 3 7 6 5 4 7 5 5 4 2 4 3 2 2 2 4 6 3 1 3 6 3 6 8 10 11 14 13 14 8 10 10 10 10 12 12 12 12
19 20 21 20 19 16 4 10 11 9 6 5 4 5 7 7 7 6 6 6 2 2 4 4 4 4 4 4 3 3 5 1 4 3 3 4 5 5 6 8 9 12 13 15 16 15 14 14 13 15 14 14 15 13
18 20 22 17 2 4 11 12 15 5 5 6 5 7 8 8 7 4 6 3 3 4 3 5 5 3 4 4 3 3 4 3 4 3 1 3 4 4 5 6 8 9 11 11 13 12 10 11 11 11 10 9 11 12
19 22 2 7 8 14 16 15 11 5 4 6 8 8 8 6 8 8 7 6 6 5 2 4 6 3 5 4 3 5 2 5 2 3 5 2 4 3 3 4 5 7 8 10 11 11 10 11 12 12 10 12 11 13
19 5 7 8 12 18 14 5 4 6 6 7 7 9 12 10 8 7 6 5 5 7 7 4 4 4 1 4 2 2 5 3 5 6 3 3 3 5 2 4 5 5 6 7 8 9 11 13 12 12 13 15 11 14
10 10 16 18 16 10 3 5 5 6 10 9 9 10 10 8 9 8 6 5 6 7 8 7 4 6 4 4 4 6 7 7 5 3 4 3 3 5 5 3 5 5 6 6 7 7 7 9 10 9 13 13 12 15
14 15 21 20 10 4 4 5 5 7 9 9 9 10 10 8 6 8 7 7 7 7 7 4 6 8 10 9 10 8 7 7 5 4 5 4 4 6 4 3 3 6 6 4 6 6 6 9 9 8 7 10 10 12
21 18 19 9 3 3 5 5 4 7 6 6 8 9 9 8 7 7 8 8 8 8 10 11 13 10 11 8 4 7 5 3 5 5 3 4 5 8 5 6 2 5 6 7 5 1 6 7 6 6 6 7 8 11
13 3 3 5 5 5 5 5 6 7 7 7 7 8 7 7 8 9 9 8 10 10 11 11 11 11 11 11 10 8 7 7 5 6 4 7 4 4 5 5 5 4 6 4 5 5 2 7 7 6 7 4 5 10
6 3 5 4 4 5 6 7 7 8 7 9 12 12 10 9 10 10 9 11 11 9 11 11 11 10 10 12 10 11 11 9 8 4 5 5 5 3 3 4 3 4 3 3 4 5 6 6 6 7 8 7 7 7
7 6 6 5 6 5 8 7 6 7 8 5 8 8 8 8 8 3 5 6 7 10 12 9 7 7 8 11 11 11 11 11 8 8 7 7 5 5 5 5 4 4 5 1 3 4 4 1 4 5 7 7 8 8
5 5 5 6 8 6 5 5 5 5 7 10 13 16 14 10 7 4 8 9 8 7 6 3 4 7 8 10 8 9 8 9 8 8 7 8 6 3 5 3 4 3 2 4 2 1 2 3 1 4 7 7 8 7
6 7 5 8 6 6 8 13 14 11 12 13 16 13 9 5 5 10 13 7 5 3 1 3 6 8 8 6 5 8 11 7 7 7 7 10 4 4 6 6 4 1 2 4 1 1 0 3 5 6 7 8 8 8
8 8 10 8 7 9 8 12 15 17 16 20 17 13 9 9 13 7 8 5 5 3 3 3 4 5 5 5 3 5 5 8 7 6 7 8 7 11 5 6 5 7 4 2 2 1 2 4 4 4 6 6 5 7
8 9 8 10 11 8 9 9 12 11 12 7 6 9 9 7 7 4 4 4 5 5 1 3 3 5 6 6 7 6 2 6 8 7 8 6 5 4 5 5 5 6 5 4 3 2 3 2 3 3 4 6 7 7
11 9 17 15 15 11 16 15 16 14 5 6 6 6 3 3 5 6 7 7 3 3 2 4 5 6 6 7 8 7 7 6 4 6 6 5 6 4 4 3 8 8 5 4 3 3 2 3 3 3 4 5 6 6
12 12 15 18 17 14 14 16 14 12 14 13 11 11 9 8 7 7 1 7 3 5 7 7 7 7 7 8 7 8 3 6 7 12 13 10 9 8 7 8 8 7 6 6 8 7 5 5 5 5 4 5 5 6
18 12 15 18 19 19 14 12 14 10 11 12 9 9 9 8 10 9 8 9 9 9 8 9 7 9 10 10 7 9 2 7 10 10 12 12 11 11 11 11 10 8 7 7 7 7 3 6 5 5 2 4 4 3
12 12 15 15 18 15 14 12 12 10 11 13 11 11 11 6 6 8 9 7 8 7 6 7 6 9 10 8 8 6 7 5 8 3 7 3 6 6 5 7 8 7 7 7 7 7 7 5 3 4 4 5 5 3
7 11 13 18 16 13 11 11 9 11 12 12 13 13 10 6 4 3 5 6 7 7 6 5 5 5 8 9 9 7 8 8 12 12 14 4 5 5 4 2 4 8 5 5 3 4 5 6 4 5 5 5 6 7
9 11 12 10 8 8 8 7 7 9 11 11 11 11 0 3 5 4 4 6 4 5 5 5 5 4 5 6 5 5 8 8 10 11 13 14 14 11 1 2 3 3 5 5 4 4 5 5 4 5 6 6 6 6
Wind_Direction
301 303 307 311 314 315 315 317 318 319 321 323 327 328 324 318 317 302 279 188 232 261 295 286 304 289 289 284 285 317 319 0 319 326 314 339 329 349 300 297 331 192 264 218 256 248 76 341 51 23 32 45 37 23
301 301 301 305 310 312 313 313 314 315 316 318 322 325 323 317 309 309 270 202 214 235 280 300 287 276 274 273 273 286 296 318 328 311 339 308 304 296 316 45 352 358 348 319 21 53 303 21 51 39 22 30 11 360
294 298 304 303 301 305 309 311 313 315 315 316 318 319 318 315 306 278 284 149 206 268 282 241 251 211 234 230 171 212 264 334 288 266 319 280 274 269 336 41 275 294 346 310 289 23 325 338 30 20 3 5 2 341
293 294 295 298 300 304 306 307 314 313 314 314 314 314 315 315 305 275 243 234 231 304 282 322 149 249 87 157 177 203 231 274 273 281 268 274 277 84 344 295 33 350 359 342 355 20 353 359 345 343 345 0 355 341
290 292 293 297 299 301 304 306 310 312 313 315 316 315 316 313 293 266 255 241 231 276 310 314 305 259 169 190 199 203 215 237 275 265 238 267 338 325 146 282 59 38 43 9 320 310 322 310 313 318 343 349 341 340
291 292 293 296 300 301 303 303 310 310 313 316 317 316 315 308 256 199 230 207 199 178 265 293 348 211 168 186 241 188 181 208 231 298 307 356 8 307 323 53 8 356 350 335 308 309 302 305 317 314 325 331 338 328
297 297 297 299 299 299 300 303 308 310 313 313 315 314 312 296 208 270 10 28 125 144 229 270 267 191 19 229 271 242 189 225 221 274 315 328 321 287 10 20 347 342 348 332 305 333 316 313 308 313 306 314 316 318
302 301 303 301 300 300 300 303 308 311 313 312 314 315 309 169 256 232 117 178 178 246 234 273 289 341 356 349 299 265 282 234 235 297 295 346 336 356 22 347 324 324 323 312 335 332 299 302 292 293 305 307 313 315
308 307 307 307 305 299 302 305 308 312 311 307 314 297 225 231 262 53 106 154 237 285 260 216 254 262 191 45 312 279 227 252 198 313 85 331 22 50 352 342 336 332 335 317 323 306 290 293 301 301 311 310 314 319
309 312 315 312 312 310 307 308 312 315 308 302 287 208 179 38 50 151 170 200 207 212 229 258 330 301 292 289 310 295 280 268 192 152 136 116 156 261 253 275 334 333 346 347 339 333 339 337 329 330 318 309 306 308
310 309 309 308 311 310 312 311 320 318 289 313 327 329 4 103 241 198 233 221 184 212 215 230 277 310 106 306 263 268 292 277 277 147 260 206 52 46 35 12 22 346 33 11 352 339 348 340 326 325 318 315 314 311
309 312 310 309 310 310 311 312 321 300 356 318 302 299 312 268 235 221 222 198 220 248 164 245 67 282 102 207 222 270 242 280 283 345 253 80 48 17 24 27 18 3 47 43 20 351 359 4 358 342 345 347 334 320
311 311 312 317 310 312 313 308 314 306 295 172 203 231 220 218 238 223 214 215 236 175 197 198 218 157 143 199 245 252 289 269 332 267 236 106 105 46 21 23 21 15 14 18 58 22 27 14 346 354 351 352 351 337
317 310 309 308 307 301 353 330 322 317 274 247 229 246 225 202 227 223 232 254 53 309 244 235 276 157 170 205 242 213 236 111 263 254 215 101 50 24 15 12 11 10 14 7 10 27 25 8 13 15 16 8 1 3
321 307 299 299 5 329 315 316 301 273 272 259 214 243 230 238 271 248 252 266 216 256 277 239 224 225 179 237 224 225 232 234 220 242 9 27 10 32 11 13 5 10 8 11 4 20 11 8 17 39 33 9 4 0
320 300 139 24 328 312 316 311 284 226 242 245 238 257 253 260 259 228 222 246 253 196 228 258 266 235 212 205 179 220 234 228 242 224 274 117 324 329 9 11 21 19 3 8 2 8 19 357 2 2 13 21 22 17
309 226 32 344 334 313 292 272 227 221 240 240 236 238 265 280 270 293 296 236 232 222 229 229 226 244 40 239 187 159 214 217 229 237 253 68 282 278 316 328 10 27 12 15 359 7 28 6 3 1 1 22 20 27
285 300 339 337 334 310 251 216 259 234 235 236 251 257 257 241 263 266 257 234 245 226 235 242 247 230 227 181 226 210 216 229 254 264 292 355 249 259 249 282 330 345 18 14 346 354 31 23 4 12 344 17 14 22
311 309 306 302 307 298 271 227 236 258 240 258 266 262 271 274 267 264 267 266 219 244 262 215 237 246 239 236 236 259 191 216 236 182 230 184 231 249 286 273 300 302 332 343 332 15 16 56 26 356 354 1 358 358
297 293 283 280 231 243 257 245 231 257 265 279 293 272 265 266 255 245 234 233 234 218 230 238 241 251 273 283 222 253 279 268 186 231 241 269 209 183 209 273 186 304 300 317 331 130 355 51 51 354 22 357 10 359
297 29 252 225 207 221 276 282 247 254 273 272 281 285 280 276 256 233 247 237 236 220 239 237 248 254 264 274 278 266 237 249 217 244 243 195 202 220 166 217 226 232 257 292 347 349 305 53 7 328 67 43 19 8
250 2 290 243 253 220 247 236 253 322 289 267 279 278 267 267 268 266 255 235 235 229 236 249 253 258 252 248 247 240 251 248 236 157 160 194 258 215 221 208 273 260 278 341 309 344 38 43 21 335 32 32 54 34
229 233 221 246 229 237 257 230 244 236 244 262 230 257 265 246 258 263 260 264 243 233 241 243 254 274 277 278 273 237 221 226 241 217 191 221 188 200 179 201 232 287 296 144 42 346 11 33 129 337 31 26 43 9
252 232 219 227 212 254 238 227 223 248 265 250 261 268 265 273 283 244 259 253 251 265 260 257 266 256 246 241 258 251 198 217 232 234 201 234 144 181 238 207 224 229 7 320 65 257 341 345 303 31 31 22 42 21
245 207 223 228 219 231 248 230 233 237 256 252 254 254 259 287 275 257 254 261 243 231 42 314 271 263 260 264 235 230 232 227 232 224 159 226 127 249 193 174 176 76 312 288 271 182 242 20 29 26 54 33 21 28
249 221 206 215 214 221 228 251 242 244 248 248 247 252 259 265 255 243 260 242 99 106 69 304 325 313 302 296 204 223 228 260 229 199 199 228 176 196 178 224 191 155 135 240 266 60 49 34 40 1 66 90 93 37
241 254 230 240 260 268 265 267 285 287 283 270 266 245 227 233 236 240 98 176 133 107 159 299 340 330 326 315 306 292 206 227 235 251 153 205 129 190 206 199 183 94 113 123 111 19 7 62 50 32 43 75 55 57
222 256 255 256 254 249 261 270 267 276 253 271 271 238 241 247 24 16 349 331 74 168 263 317 319 326 312 321 307 281 239 224 151 161 165 131 128 144 172 129 88 50 106 66 42 105 49 27 61 58 61 67 78 70
240 247 257 260 268 267 260 253 253 264 274 270 264 263 269 281 264 282 163 260 288 307 311 328 352 323 296 279 269 280 198 201 185 188 191 175 171 181 184 135 159 176 157 130 60 42 51 38 46 77 79 81 84 91
248 241 247 257 260 260 260 260 270 260 262 281 299 296 282 279 41 22 4 351 339 332 348 339 321 318 302 282 268 282 224 211 204 198 203 205 193 189 181 167 180 169 158 168 153 129 100 172 154 167 131 86 96 99
248 259 263 251 249 257 265 257 255 253 263 269 271 266 268 275 91 41 24 356 349 15 6 353 354 343 344 10 12 338 268 313 95 79 296 156 106 74 328 219 168 165 175 191 178 181 166 202 106 98 101 108 94 89
253 244 248 254 257 258 266 262 252 257 255 246 239 243 250 263 97 54 9 6 19 16 9 5 5 1 352 357 25 30 21 25 20 9 353 21 87 117 130 167 158 132 150 261 247 170 172 119 143 150 119 106 104 95
260 254 247 258 262 258 232 231 251 254 250 255 258 254 192 52 76 52 59 26 13 358 342 340 6 6 44 57 45 47 53 52 33 20 23 25 21 9 111 82 60 148 150 134 114 101 101 129 142 131 120 113 105 100